Vorticity
nan nan nan nan nan nan nan nan nan nan nan nan nan nan nan nan nan nan nan nan nan nan nan nan nan nan nan nan nan nan nan nan nan nan nan nan nan nan nan nan nan nan nan
nan 7 5 5 4 4 5 6 7 8 8 7 6 5 6 5 6 6 5 5 6 6 4 3 5 7 8 7 6 7 8 6 6 7 5 4 6 5 4 4 12 6 nan
nan 8 4 4 5 5 5 6 6 8 8 7 6 6 6 6 6 6 5 5 5 6 6 4 5 6 7 8 7 7 7 7 8 7 3 4 4 5 4 7 13 7 nan
nan 6 7 4 5 5 5 6 6 7 7 7 7 6 6 6 5 5 5 5 6 6 6 5 5 5 6 6 7 7 8 8 7 4 3 5 7 7 6 6 4 6 nan
nan 6 9 6 6 5 4 5 6 7 7 7 7 6 6 6 5 4 4 5 6 6 6 6 5 5 6 6 7 6 7 7 6 2 6 7 7 8 6 4 6 5 nan
nan 5 5 6 7 6 5 5 6 6 7 7 7 7 6 5 5 4 5 6 6 6 5 6 5 5 6 6 6 5 6 6 3 7 5 6 10 7 6 3 6 7 nan
nan 7 2 5 8 6 6 5 5 5 6 6 6 6 6 6 5 5 5 5 6 5 5 6 6 6 6 6 6 6 5 4 4 8 8 6 10 11 8 7 6 4 nan
nan 8 5 4 6 6 6 5 5 6 6 6 6 6 6 6 6 6 5 5 6 6 6 5 7 6 6 6 5 6 5 4 8 6 5 7 12 15 14 14 7 4 nan
nan 7 8 5 1 3 6 6 6 6 6 6 6 6 6 7 7 6 6 6 6 7 6 6 7 6 6 6 5 6 6 5 6 8 6 9 13 9 5 10 5 6 nan
nan 8 7 7 5 4 1 4 7 6 6 7 6 6 6 5 5 6 5 9 7 6 6 7 6 7 6 6 6 5 4 7 9 5 6 14 8 1 2 5 4 4 nan
nan 8 7 7 6 6 5 3 3 5 4 4 4 6 6 6 6 5 6 7 6 6 6 6 7 6 4 5 7 6 3 7 7 7 13 13 4 6 7 -1 2 4 nan
nan 9 7 7 6 4 7 8 5 5 5 5 5 4 2 7 7 5 7 3 6 6 5 6 6 5 5 4 3 4 5 6 6 6 16 12 5 3 2 3 5 4 nan
nan 9 8 7 7 6 5 4 7 8 8 10 8 5 5 6 7 6 5 6 6 6 6 5 5 4 4 4 6 5 7 4 7 7 14 9 5 3 2 2 4 5 nan
nan 11 9 7 6 5 4 7 7 5 6 9 12 7 5 6 8 7 6 8 6 7 7 5 4 8 7 7 6 6 6 6 5 9 9 8 4 6 7 4 5 5 nan
nan 14 10 8 7 6 5 5 7 7 7 7 7 7 8 7 7 7 6 8 7 6 7 7 6 8 8 6 6 7 6 6 4 7 10 13 4 8 10 7 5 7 nan
nan 12 13 8 7 6 7 5 6 8 6 7 7 7 7 5 7 8 7 7 7 7 7 7 7 6 8 8 6 6 7 8 7 6 8 8 12 9 11 12 6 9 nan
nan 10 11 14 8 6 6 5 6 7 7 8 8 9 7 6 6 7 8 7 7 11 8 7 9 8 7 7 8 7 7 6 7 7 6 7 10 8 9 13 13 9 nan
nan 10 12 14 9 7 5 6 6 7 8 7 8 10 9 8 4 5 7 8 6 8 10 10 9 8 7 7 8 7 7 7 7 6 6 7 5 9 10 12 13 10 nan
nan 12 13 11 11 8 5 6 8 6 7 8 9 10 10 9 6 5 6 7 8 6 9 9 8 7 7 8 7 7 7 8 7 7 8 7 6 6 10 10 11 11 nan
nan 18 16 14 14 8 7 8 7 7 7 7 8 8 9 10 8 6 8 8 8 6 7 9 8 8 9 7 9 9 8 7 8 8 8 9 7 7 7 6 9 13 nan
nan 17 21 15 10 8 9 7 7 7 6 7 10 10 6 7 10 6 5 8 7 8 7 6 8 9 7 8 9 8 9 11 9 8 8 9 8 9 7 7 5 9 nan
nan 13 17 21 14 7 6 7 8 8 8 8 9 10 9 7 6 7 6 6 6 7 9 8 4 7 11 9 4 7 11 10 11 11 8 9 7 9 10 9 7 8 nan
nan 11 14 18 20 16 6 8 8 8 9 10 8 10 12 9 7 7 5 5 6 7 8 9 9 5 5 10 7 2 3 7 11 13 11 10 10 8 9 10 9 10 nan
nan 12 15 19 18 12 18 18 11 6 6 8 9 9 12 13 8 6 7 7 6 10 9 9 8 6 5 5 10 8 1 6 8 7 10 11 11 10 9 8 11 11 nan
nan 12 12 15 18 19 15 18 26 6 5 8 9 11 12 14 13 10 10 9 9 9 10 10 9 7 5 5 6 8 10 8 5 5 8 8 7 9 9 8 9 11 nan
nan nan nan nan nan nan nan nan nan nan nan nan nan nan nan nan nan nan nan nan nan nan nan nan nan nan nan nan nan nan nan nan nan nan nan nan nan nan nan nan nan nan nan
CAPE
1049 1682 1237 1345 1412 1405 1326 1431 1564 1675 1747 1672 1698 1727 1748 1774 1750 1806 2029 2119 2093 2153 1876 1634 1982 2004 1625 1765 2192 1898 2023 1931 1868 1983 2196 1962 1751 1582 1613 1874 1363 1457 1715
1021 1666 1204 1310 1376 1399 1386 1409 1605 1800 1995 1847 1742 1749 1772 1795 1851 1975 2108 2113 2109 2180 1750 1660 1831 1774 1666 2299 1861 1800 1842 1718 1822 2071 2008 1822 1749 1842 1624 1613 1563 1551 1747
1239 1758 1612 1264 1363 1422 1464 1526 1786 2050 2174 1978 1854 1848 1902 1970 2015 2081 2091 2076 2171 2262 1855 1688 1695 1563 1646 1901 1726 1729 1668 1665 1630 2003 2055 1491 1644 1807 1504 1480 1584 1683 1936
1477 1908 1693 1269 1371 1414 1436 1530 1849 2186 2219 2090 2002 1989 2061 2128 2147 2162 2074 2039 2177 2276 1978 1747 1708 1685 1648 1701 1662 1639 1616 1611 1574 1729 1777 1488 1382 1663 1590 1294 1873 1767 1751
1617 1845 1898 1371 1391 1433 1422 1548 1780 2016 2006 2025 2003 2144 2261 2302 2263 2175 1928 1952 2219 2361 2081 1877 1835 1754 1524 1429 1518 1521 1467 1372 1423 1438 1630 1451 1496 1545 1536 1329 1309 1362 1207
1657 1785 1370 1327 1439 1509 1545 1595 1743 1744 1740 1820 1964 2231 2370 2413 2361 2074 1810 1964 2291 2394 2368 2071 1911 1532 1210 1221 1342 1348 1165 1091 1126 1518 1415 1422 1346 1630 1525 1475 1107 1215 1173
1869 1993 2088 1299 1464 1607 1713 1700 1646 1531 1556 1759 1994 2125 2248 2352 2287 1921 1765 1902 2165 2182 1924 2086 1743 1281 1105 1087 1192 1099 859 993 1576 1234 1424 1449 1382 1383 1187 855 697 811 1429
2189 2270 2245 1441 1508 1633 1693 1625 1431 1368 1459 1700 1939 2051 2198 2206 2029 1841 1746 1792 1906 1731 1562 1695 1282 1135 1021 988 960 782 661 844 1200 1395 1161 1310 1004 878 631 387 384 555 781
2460 2595 2600 2176 1836 1526 1640 1499 1289 1280 1398 1632 1840 1987 2087 1984 1794 1778 1739 1720 1801 1603 1563 1365 1036 925 937 816 682 630 623 784 1400 1278 1120 1317 912 291 91 214 305 403 608
2604 2738 2822 2534 2294 2206 2090 1313 1150 1176 1280 1536 1703 1815 1841 1722 1676 1710 1700 1677 1751 1606 1404 1113 861 794 815 474 421 423 381 370 1372 1151 1099 1256 274 20 63 413 475 816 835
2466 2654 2821 2722 2548 2517 2391 1958 1093 1055 1138 1294 1538 1531 1621 1948 2166 2080 1732 1692 1649 1536 1169 937 756 708 543 250 141 183 209 1073 1164 1098 1260 305 322 332 371 441 477 629 690
2375 2520 2631 2696 2673 2673 2330 2452 2208 1973 1703 1706 1828 2054 1995 1888 2043 1743 1510 1420 1363 1355 1046 774 662 486 537 1260 1024 93 998 1049 1114 1033 1261 405 911 670 483 311 458 424 681
1865 2192 2361 2635 2653 2581 2337 2320 2192 2201 2042 1989 2012 2145 2054 2132 2144 1959 2040 1881 1902 1154 1631 1042 991 1235 1185 1282 1231 1103 1000 1148 854 860 823 297 676 459 395 191 212 331 372
401 1891 2092 2320 2568 2576 2235 2159 2303 2240 2124 2159 2102 2381 2299 2309 2267 1992 2010 1849 1794 1789 1627 1408 1341 1236 1461 1411 1222 1206 1131 912 681 672 892 141 327 474 462 172 240 325 307
0 1198 1731 2108 2342 2348 2338 2063 2088 2135 2133 1834 1806 2062 2261 2212 2238 2192 2200 2012 1953 1836 1729 1575 1400 1527 1382 1214 1110 1067 1045 959 779 646 743 67 59 160 555 337 486 335 195
0 332 1707 1891 2037 2046 2108 2136 2158 2091 1926 1896 1669 1750 1931 2140 2203 2197 2243 2109 2143 2082 1793 1625 1447 1397 1208 1074 979 857 690 598 606 519 552 713 11 45 252 655 479 351 183
0 0 992 1789 2036 2045 1858 2115 2111 1870 1896 1833 1853 1622 1763 2175 2243 1864 2015 2082 1874 1932 1884 1750 1493 1324 1180 1050 892 861 626 529 427 510 508 550 352 0 1 218 550 243 164
0 0 0 1369 1776 2087 1958 1887 1928 1868 1717 1830 1871 2025 1623 1854 2031 1829 1511 1763 2109 2073 1958 1629 1391 1163 1246 1111 1044 905 704 615 638 568 491 453 527 495 59 6 123 204 191
0 0 0 1042 1855 1998 2043 1877 1849 1853 1542 1674 1763 1755 1856 1589 1951 1671 1400 1364 1945 1292 1172 1085 926 1251 1180 1296 1038 969 819 698 694 527 460 353 430 346 393 37 6 50 99
0 0 0 278 2061 2088 2069 1987 1780 1827 1690 1612 1425 1330 1421 1352 1440 1566 1258 1220 1331 1399 1095 933 882 709 1185 1241 837 825 799 792 690 657 515 340 243 333 470 430 432 171 18
0 0 0 40 1850 2403 1991 1759 1758 1767 1900 1609 1640 1552 1603 1225 1115 1198 1455 1287 1068 1113 1157 1062 908 697 831 944 914 601 456 555 483 459 684 454 378 394 448 421 592 607 252
0 0 0 119 982 2452 2242 1791 1703 1785 1648 1705 1720 1661 1675 1751 1513 1156 1377 1115 825 1462 1035 1037 1033 559 791 678 480 425 627 474 299 165 488 460 586 488 412 448 576 419 422
1 0 0 10 1474 2312 2510 2355 1846 1750 1808 1854 1917 1819 1751 1703 1789 1551 1752 1876 1503 1408 1110 967 854 691 570 452 843 442 394 216 183 359 184 397 388 402 379 290 352 307 384
7 5 7 10 5 1333 1896 2297 2464 2358 2436 2515 2472 2277 1996 1737 1686 1791 1755 1796 1669 1135 1367 893 616 822 729 334 285 837 487 374 204 160 352 54 81 155 153 243 274 277 178
6 3 2 1 3 9 998 529 1813 2485 2623 2740 2465 2290 2021 1679 1707 1721 1817 2048 1857 1182 1269 1053 672 831 1183 1383 942 619 558 680 450 217 205 370 160 172 275 257 53 178 181
15 7 2 2 3 4 2 0 40 1364 2669 2475 2671 2413 1906 1600 1496 1578 2172 1970 1646 1288 1140 1250 876 1077 1319 1548 1156 639 453 469 314 229 193 194 173 134 148 202 154 308 331